Погода в Гари

Погода в Гари : погода сейчас, прогноз погоды и архив. Всё, что Вы хотите узнать о погоде в Гари!

Поиск расширенной информации на нашем сайте:

Другие новости

Новости СМИ2

Главная страница сайта

Новости сайта

03.07.2017

Напоминаем, что на нашем специализированном сайте Метеоцентр.Азия вы можете получить высокодетализированные автоматические прогнозы погоды по пунктам России, СНГ и мира в авиационном формате (включающие направление и скорость ветра, видимость, явления погоды, количество и форму облачности, нижнюю и верхнюю границу облачности).


Погода в Гари - сегодня

Время (UTC), дата Ветер
(°,м/с) 
Видим.   Явления Облачность Т
(°С)
Тd
(°С)
f(%) Тe
(°С)
Pmin
(гПа)
dP
(гПа)
Po
(мм)
O2
(г/м3)
Тmin Tmax R s Состояние
почвы
00 19.09.17 280 (З) 10 км    4/0 300 м верхняя 
[Ci fib]
+5.4 +2.5 82 +5  1019.6  1.3  753  297           
03 19.09.17 130 (ЮВ) 20000 м    6/0 верхняя 
[Ci fib]
+2 -0.2 85 +3  1020.4  0.6  753  301  -0.1        сухая 
06 19.09.17 170 (Ю) 20000 м    10/0 верхняя 
[Cs]
+4.7 +2.2 84 +4  1020.6  0.4  753  298           
09 19.09.17 180 (Ю) 20000 м    10/0 средняя 
[Ac und]
+7.5 +0.7 62 +7  1019.8  -0.7  753  295           
12 19.09.17 150 (ЮВ) 20000 м    10/3 600 м средняя 
[Sc|Ac und]
+8.2 -0.8 53 +8  1018.8  -1  752  294           
18 19.09.17 110 (В) 10 км  слаб. ливневой дождь  10/10 300 м кучево-дожд. 
[Cb cap]
+5.9 +5.2 95 +4  1015.1  -2.8  749  295           
00 20.09.17 140 (ЮВ) 10 км  {ливн. осадки}  10/10 300 м 
[Sc]
+7.1 +6.4 95 +6  1009.7  -1.5  745  292           
03 20.09.17 180 (Ю) 4000 м  дымка{дождь}  10/10 300 м 
[St]
+7.3 +6.9 97 +7  1009.2  -0.5  745  291  +5.4    11    мокрая 
06 20.09.17 290 (З) 20000 м  в посл. час ливневой дождь  9/9 300 м кучево-дожд. 
[Cb calv]
+7.7 +7.3 97 +8  1009.8  0.6  745  291           
09 20.09.17 290 (З) 20000 м    9/9 300 м 
[Sc]
+9.4 +5.3 76 +9  1011.3  1.6  747  290           
12 20.09.17 320 (СЗ) 20000 м    9/9 300 м кучево-дожд. 
[Cb calv]
+8.8 +5.5 80 +8  1012.5  1.2  748  291           
18 20.09.17 350 (С) 10 км  {ливн. осадки}  10/10 300 м кучево-дожд. 
[Cb calv]
+6.8 +6.4 97 +5  1014.8  749  293           
21 20.09.17 350 (С) 10 км  {ливн. осадки}  10/10 300 м кучево-дожд. 
[Cb calv]
+5.8 +5.6 99 +4  1016.4  1.5  750  295           
00 21.09.17 030 (СВ) 10 км  {ливн. осадки}  9/9 300 м 
[Sc]
+5.6 +5.4 99 +4  1019.2  2.7  752  296           
03 21.09.17 360 (С) 20000 м  {ливн. осадки}  9/9 300 м 
[Sc]
+5.3 +5.1 99 +3  1021.5  2.3  754  297  +5.2      мокрая 
06 21.09.17 010 (С) 20000 м  {ливн. осадки}  9/9 600 м 
[Sc]
+6.3 +4.2 86 +4  1023.7  2.3  756  297           
09 21.09.17 360 (С) 20000 м    8/8 600 м 
[Sc]
+6.7 +4.1 83 +5  1025.1  1.4  757  297           
12 21.09.17 350 (С) 20000 м    6/6 600 м кучево-дожд. 
[Cb calv]
+8.2 +5.1 81 +7  1026.3  1.2  758  296           
18 21.09.17 340 (С) 10 км    6/0 средняя 
[Ac trans]
+3.9 +3.7 99 +3  1028.6  0.9  759  301           
21 21.09.17 350 (С) 10 км    4/0 средняя 
[Ac trans]
+2.3 +1 91 +1  1029  0.4  759  303           
00 22.09.17 340 (С) 10 км    3/0 средняя 
[Ac trans]
+2.1 +1.6 96 +1  1029.7  0.6  760  304           
03 22.09.17 350 (С) 20000 м    6/0 средняя 
[Ac und]
+3 +2.5 97 +1  1030.1  0.4  760  303  +1.6        влажная 
12 22.09.17 340 (С) 6{13}  20000 м    4/0 средняя 
[Ac und]
+8.2 -3.3 44 +6  1032.8  0.5  762  299           
18 22.09.17 360 (С) 10 км    6/0 средняя 
[Ac und]
+3.2 +0.6 83 +2  1034.8  1.4  764  304           
21 22.09.17 330 (СЗ) 10 км    ясно 
+2.8 +1.2 89 +2  1034.6  -0.2  764  304           
Время (UTC), дата Ветер
(°,м/с) 
Видим.   Явления Облачность Т
(°С)
Тd
(°С)
f(%) Тe
(°С)
Pmin
(гПа)
dP
(гПа)
Po
(мм)
O2
(г/м3)
Тmin Tmax R s Состояние
почвы

Для получения пояснительной информации подведите курсор к названию столбца.

ПОГОДА в Гари - архив

Всё, что Вы хотите узнать о погоде в Гари - удобно и подробно!

Выберите нужную дату (начиная с 1 января 2015* года) и нажмите кнопку "Найти".
Будут отображены архивные сводки погоды по пункту Гари, начиная с указанной даты.


Отображать данные в формате CSV (для использования в таблицах Excel)


Внимание! Наш архив погоды предназначен исключительно для личного некоммерческого использования в познавательных целях. Если Вам необходимы официальные справки о состоянии погоды (для производственных, юридических, коммерческих и т.п. целей), обращайтесь в органы Росгидромета.

*Примечание: данная дата относится к архиву по метеостанциям СССР (Россия, СНГ, Балтия).
Архив по метеостанциям Зарубежной Европы и Азии (кроме Китая) хранится 10 дней, по другим регионам земного шара (Китай, Африка, Америка, Австралия, Океания) - 1 день.

Гари - район местоположения метеостанции


Название, широта, долгота, высота метеостанции:
Гари 59.4°ш. 62.3°д. 131 м над ур. моря [Российская Федерация]

Дополнительная информация

В oтличие oт бoльшинства пoгoдных сайтoв мы публикуем пoдрoбную метеoинфoрмацию в детальнoм прoфессиoнальнoм фoрмате.

Характеристики температуры и влажнoсти вoздуха измеряются на высoте 2 м в тени вдали oт зданий и деревьев.
Скoрoсть ветра измеряется на высoте 10 м (на урoвне рoста челoвека скoрoсть ветра ниже в 1.5-2 раза). Если метеoстанция нахoдится в гoрoде или в лесу, тo скoрoсть ветра занижена на 2-4 м/с пo сравнению с oткрытым местoм. Скoрoсть ветра над акватoриями крупных рек и oзёр, а также на вершинах хoлмoв на 2-5 м/с выше, чем в oбычных услoвиях.
Атмoсфернoе давление в разных тoчках местнoсти мoжет значительнo oтличаться oт давления на метеoстанции, в зависимoсти oт услoвий рельефа (при пoдъёме на 10 м давление пoнижается примернo на 1 мм рт.ст.).